Location: Washington
(38.8950°N, 77.0370°W)
Time: 23:42:30
(UTC-05:00)

IDEFIX/ARIANE 42P - Visible Passes

Search period start: 18 January 2017 00:00
Search period end: 28 January 2017 00:00
Orbit: 786 x 802 km, 98.2° (Epoch: 18 January)

Date Brightness Start Highest point End Pass type
(mag) Time Alt. Az. Time Alt. Az. Time Alt. Az.
18 Jan 4.7 05:32:20 10° NE 05:36:50 28° E 05:41:18 10° SSE visible
18 Jan 4.9 18:29:36 10° SSW 18:33:54 26° W 18:38:16 10° NW visible
19 Jan 5.6 05:05:18 10° ENE 05:08:15 15° E 05:11:12 10° SE visible
19 Jan 2.6 06:43:02 10° N 06:48:15 62° WNW 06:53:26 10° SSW visible
19 Jan 3.7 18:00:26 10° S 18:05:26 48° W 18:10:30 10° NNW visible
20 Jan 2.9 06:14:41 10° NNE 06:19:58 73° ESE 06:25:13 10° S visible
21 Jan 4.1 05:46:39 10° NNE 05:51:35 39° E 05:56:27 10° SSE visible
21 Jan 5.5 18:45:05 10° SW 18:48:41 19° W 18:52:19 10° NW visible
22 Jan 5.2 05:19:07 10° NE 05:23:04 21° E 05:26:59 10° SE visible
22 Jan 4.4 18:15:26 10° SSW 18:20:09 35° W 18:24:55 10° NNW visible
23 Jan 5.9 04:53:10 10° ENE 04:54:26 11° E 04:55:42 10° ESE visible
23 Jan 2.6 06:29:20 10° N 06:34:37 82° WNW 06:39:53 10° SSW visible
23 Jan 3.1 17:46:34 10° S 17:51:44 65° W 17:56:58 10° NNW visible
24 Jan 3.4 06:01:07 10° NNE 06:06:17 54° E 06:11:25 10° S visible
24 Jan 5.8 19:01:05 10° WSW 19:03:30 13° W 19:05:56 10° WNW visible
25 Jan 4.6 05:33:16 10° NE 05:37:50 29° E 05:42:22 10° SSE visible
25 Jan 5.0 18:30:40 10° SSW 18:34:54 25° W 18:39:12 10° NW visible
26 Jan 5.6 05:06:09 10° NE 05:09:16 16° E 05:12:23 10° SE visible
26 Jan 2.7 06:44:03 10° N 06:49:14 59° WNW 06:54:24 10° SSW visible
26 Jan 3.9 18:01:26 10° S 18:06:25 46° W 18:11:29 10° NNW visible
27 Jan 2.8 06:15:40 10° NNE 06:20:58 76° ESE 06:26:13 10° S visible
